Weather History for KFSE - November, 2013

Change the Weather History Date:

Saturday, November 2, 2013

  Actual Average Record
Temperature  
Mean Temperature 34 °F -  
Max Temperature 50 °F 45 °F 72 °F (1978)
Min Temperature 19 °F 26 °F -6 °F (1951)
Degree Days  
Heating Degree Days 30    
Moisture  
Dew Point 28 °F    
Average Humidity 87    
Maximum Humidity 100    
Minimum Humidity 58    
Precipitation  
Precipitation 0.00 in - - ()
Sea Level Pressure  
Sea Level Pressure 29.98 in    
Wind  
Wind Speed 2 mph (South)    
Max Wind Speed 8 mph    
Max Gust Speed -    
Visibility 8 miles    
Events Fog    
Averages and records for this station are not official NWS values.
T = Trace of Precipitation, MM = Missing Value Source: NWS Daily Summary

Daily Weather History Graph

Daily Weather History Graph

Search for Another Location

Airport or City:

Trip Planner

Search our weather history database for the weather conditions in past years. The results will help you decide how hot, cold, wet, or windy it might be!

Date:

Astronomy

Nov. 02, 2013 Rise Set
Actual Time 8:09 AM CDT 6:03 PM CDT
Civil Twilight 7:36 AM CDT 6:35 PM CDT
Nautical Twilight 7:00 AM CDT 7:12 PM CDT
Astronomical Twilight 6:24 AM CDT 7:48 PM CDT
Moon 7:04 AM CDT (11/2) 5:37 PM CDT (11/2)
Length of Visible Light 10h 59m
Length of Day
9h 54m
Waning Crescent, 1% of the Moon is Illuminated
Nov 2
Waning Crescent
Nov 3
New
Nov 9
First Quarter
Nov 17
Full
Nov 25
Last Quarter

Hourly Weather History & Observations

Time (CDT) Temp. Windchill Dew Point Humidity Pressure Visibility Wind Dir Wind Speed Gust Speed Precip Events Conditions
12:15 AM 24.8 °F - 23.0 °F 93% 29.90 in 10.0 mi Calm Calm - N/A   Clear
12:35 AM 24.8 °F - 24.8 °F 100% 29.90 in 10.0 mi Calm Calm - N/A   Clear
12:55 AM 24.8 °F - 21.2 °F 86% 29.91 in 5.0 mi Calm Calm - N/A   Clear
1:15 AM 23.0 °F - 21.2 °F 93% 29.92 in 5.0 mi Calm Calm - N/A   Clear
1:35 AM 23.0 °F - 21.2 °F 93% 29.92 in 5.0 mi Calm Calm - N/A   Clear
1:55 AM 21.2 °F - 21.2 °F 100% 29.93 in 5.0 mi Calm Calm - N/A   Clear
2:15 AM 21.2 °F - 19.4 °F 93% 29.93 in 5.0 mi Calm Calm - N/A   Clear
2:35 AM 21.2 °F - 19.4 °F 93% 29.94 in 5.0 mi Calm Calm - N/A   Clear
2:55 AM 21.2 °F - 19.4 °F 93% 29.94 in 3.0 mi Calm Calm - N/A   Clear
3:15 AM 21.2 °F - 19.4 °F 93% 29.94 in 1.5 mi Calm Calm - N/A   Mostly Cloudy
3:35 AM 19.4 °F - 17.6 °F 93% 29.94 in 0.5 mi Calm Calm - N/A Fog Light Freezing Fog
3:55 AM 19.4 °F - 17.6 °F 93% 29.94 in 0.5 mi Calm Calm - N/A Fog Light Freezing Fog
4:15 AM 19.4 °F - 17.6 °F 93% 29.94 in 3.0 mi Calm Calm - N/A   Scattered Clouds
4:35 AM 19.4 °F - 17.6 °F 93% 29.95 in 0.2 mi Calm Calm - N/A Fog Light Freezing Fog
4:55 AM 19.4 °F - 17.6 °F 93% 29.96 in 0.2 mi Calm Calm - N/A Fog Light Freezing Fog
5:14 AM 19.4 °F - 17.6 °F 93% 29.96 in 0.2 mi Calm Calm - N/A Fog Light Freezing Fog
5:36 AM 19.4 °F - 17.6 °F 93% 29.97 in 0.5 mi Calm Calm - N/A Fog Light Freezing Fog
5:54 AM 19.4 °F - 17.6 °F 93% 29.97 in 2.0 mi Calm Calm - N/A   Mostly Cloudy
6:15 AM 19.4 °F - 17.6 °F 93% 29.97 in 4.0 mi Calm Calm - N/A   Mostly Cloudy
6:35 AM 23.0 °F - 23.0 °F 100% 29.98 in 5.0 mi Calm Calm - N/A   Overcast
6:55 AM 23.0 °F - 21.2 °F 93% 29.98 in 7.0 mi Calm Calm - N/A   Overcast
7:15 AM 24.8 °F - 23.0 °F 93% 29.98 in 7.0 mi Calm Calm - N/A   Overcast
7:35 AM 24.8 °F - 24.8 °F 100% 29.98 in 7.0 mi Calm Calm - N/A   Overcast
7:55 AM 24.8 °F 19.1 °F 24.8 °F 100% 29.98 in 7.0 mi South 4.6 mph - N/A   Overcast
8:15 AM 24.8 °F 20.5 °F 24.8 °F 100% 29.98 in 7.0 mi SSE 3.5 mph - N/A   Mostly Cloudy
8:35 AM 24.8 °F 20.5 °F 23.0 °F 93% 29.99 in 5.0 mi South 3.5 mph - N/A   Scattered Clouds
8:55 AM 24.8 °F 17.9 °F 24.8 °F 100% 29.98 in 5.0 mi SSE 5.8 mph - N/A   Clear
9:15 AM 28.4 °F 24.6 °F 28.4 °F 100% 30.00 in 4.0 mi South 3.5 mph - N/A   Clear
9:35 AM 28.4 °F 23.3 °F 28.4 °F 100% 30.00 in 4.0 mi South 4.6 mph - N/A   Clear
9:55 AM 30.2 °F 25.4 °F 30.2 °F 100% 30.01 in 5.0 mi South 4.6 mph - N/A   Clear
10:15 AM 32.0 °F 25.6 °F 30.2 °F 93% 30.01 in 7.0 mi SSW 6.9 mph - N/A   Clear
10:35 AM 33.8 °F 28.6 °F 32.0 °F 93% 30.01 in 7.0 mi SSW 5.8 mph - N/A   Clear
10:55 AM 35.6 °F 30.7 °F 33.8 °F 93% 30.01 in 10.0 mi South 5.8 mph - N/A   Clear
11:15 AM 37.4 °F 32.1 °F 35.6 °F 93% 30.02 in 10.0 mi SSW 6.9 mph - N/A   Clear
11:35 AM 39.2 °F 35.0 °F 35.6 °F 87% 30.02 in 10.0 mi SSW 5.8 mph - N/A   Clear
11:55 AM 41.0 °F 37.1 °F 35.6 °F 81% 30.03 in 10.0 mi SSW 5.8 mph - N/A   Clear
12:15 PM 42.8 °F 38.6 °F 35.6 °F 76% 30.03 in 10.0 mi SW 6.9 mph - N/A   Clear
12:35 PM 44.6 °F 40.7 °F 37.4 °F 76% 30.03 in 10.0 mi SW 6.9 mph - N/A   Clear
12:55 PM 44.6 °F 40.7 °F 37.4 °F 76% 30.03 in 10.0 mi SW 6.9 mph - N/A   Clear
1:15 PM 46.4 °F - 35.6 °F 66% 30.02 in 10.0 mi Calm Calm - N/A   Scattered Clouds
1:35 PM 44.6 °F 40.7 °F 35.6 °F 71% 30.01 in 10.0 mi West 6.9 mph - N/A   Mostly Cloudy
1:55 PM 44.6 °F 42.2 °F 35.6 °F 71% 30.01 in 10.0 mi WNW 4.6 mph - N/A   Mostly Cloudy
2:15 PM 46.4 °F 45.2 °F 35.6 °F 66% 30.01 in 10.0 mi West 3.5 mph - N/A   Clear
2:35 PM 44.6 °F - 35.6 °F 71% 30.01 in 10.0 mi Calm Calm - N/A   Clear
2:55 PM 44.6 °F - 35.6 °F 71% 30.01 in 10.0 mi Calm Calm - N/A   Clear
3:15 PM 48.2 °F - 35.6 °F 62% 30.00 in 10.0 mi WSW 6.9 mph - N/A   Clear
3:35 PM 48.2 °F - 37.4 °F 66% 30.00 in 10.0 mi West 3.5 mph - N/A   Clear
3:55 PM 50.0 °F - 35.6 °F 58% 30.00 in 10.0 mi SSW 4.6 mph - N/A   Scattered Clouds
4:15 PM 48.2 °F - 35.6 °F 62% 30.00 in 10.0 mi Calm Calm - N/A   Clear
4:35 PM 48.2 °F - 37.4 °F 66% 30.00 in 10.0 mi SW 5.8 mph - N/A   Clear
4:55 PM 48.2 °F - 35.6 °F 62% 30.00 in 10.0 mi WSW 5.8 mph - N/A   Clear
5:15 PM 46.4 °F 44.3 °F 35.6 °F 66% 30.00 in 10.0 mi SW 4.6 mph - N/A   Clear
5:35 PM 44.6 °F - 37.4 °F 76% 30.00 in 10.0 mi Calm Calm - N/A   Clear
5:55 PM 42.8 °F 40.1 °F 32.0 °F 66% 29.99 in 10.0 mi SSW 4.6 mph - N/A   Clear
6:15 PM 37.4 °F - 30.2 °F 75% 29.99 in 10.0 mi Calm Calm - N/A   Clear
6:35 PM 35.6 °F - 33.8 °F 93% 29.99 in 10.0 mi Calm Calm - N/A   Clear
6:55 PM 33.8 °F - 30.2 °F 87% 29.99 in 10.0 mi Calm Calm - N/A   Clear
7:15 PM 30.2 °F - 28.4 °F 93% 29.99 in 7.0 mi Calm Calm - N/A   Clear
7:35 PM 30.2 °F - 28.4 °F 93% 29.99 in 10.0 mi Calm Calm - N/A   Clear
7:55 PM 30.2 °F - 28.4 °F 93% 30.00 in 10.0 mi Calm Calm - N/A   Clear
8:15 PM 30.2 °F 25.4 °F 28.4 °F 93% 30.00 in 10.0 mi SSE 4.6 mph - N/A   Clear
8:35 PM 30.2 °F 25.4 °F 28.4 °F 93% 30.00 in 10.0 mi SSE 4.6 mph - N/A   Clear
8:55 PM 33.8 °F 28.6 °F 32.0 °F 93% 30.00 in 10.0 mi SSE 5.8 mph - N/A   Clear
9:15 PM 35.6 °F 30.7 °F 33.8 °F 93% 30.00 in 10.0 mi SSE 5.8 mph - N/A   Clear
9:35 PM 35.6 °F 29.9 °F 32.0 °F 87% 29.99 in 10.0 mi SSE 6.9 mph - N/A   Clear
9:55 PM 35.6 °F 29.9 °F 32.0 °F 87% 29.99 in 10.0 mi SSE 6.9 mph - N/A   Clear
10:15 PM 35.6 °F 29.2 °F 32.0 °F 87% 29.99 in 10.0 mi SSE 8.1 mph - N/A   Clear
10:35 PM 35.6 °F 29.2 °F 32.0 °F 87% 29.99 in 10.0 mi SSE 8.1 mph - N/A   Clear
10:55 PM 33.8 °F 27.7 °F 32.0 °F 93% 29.99 in 10.0 mi SSE 6.9 mph - N/A   Clear
11:15 PM 33.8 °F 27.7 °F 30.2 °F 87% 29.99 in 10.0 mi SSE 6.9 mph - N/A   Clear
11:35 PM 33.8 °F 27.7 °F 30.2 °F 87% 29.99 in 10.0 mi SSE 6.9 mph - N/A   Clear
11:55 PM 33.8 °F 27.7 °F 30.2 °F 87% 29.99 in 10.0 mi SSE 6.9 mph - N/A   Clear